This demonstration page uses our WeatherBlox Daily Observations layout. Learn more.

Left ArrowRight Arrow

Hourly Observations for November 29, 2018

Temp ( °F °C ) Dew Point ( °F °C ) Humidity (%) Winds ( mph kmh ) Pressure ( in mb ) Visibility ( mi km ) Precip ( " mm )
12:53 am 00:53 Clear 29 -1.7 25 -3.9 85 85 SW 12 19 29.68 1005 10 16 N/A
1:53 am 01:53 Clear 30 -1.1 25 -3.9 82 82 WSW 9 15 29.68 1005 10 16 N/A
2:53 am 02:53 Clear 27 -2.8 24 -4.4 89 89 WSW 8 13 29.70 1006 10 16 N/A
3:53 am 03:53 Clear 28 -2.2 24 -4.4 85 85 SW 14 22 29.69 1006 10 16 N/A
4:53 am 04:53 Clear 29 -1.7 25 -3.9 85 85 SW 12 19 29.71 1006 10 16 N/A
5:53 am 05:53 Clear 28 -2.2 23 -5 81 81 WSW 7 11 29.72 1006 10 16 N/A
6:53 am 06:53 Clear 26 -3.3 23 -5 88 88 SW 6 9 29.73 1007 10 16 N/A
7:53 am 07:53 Sunny 25 -3.9 23 -5 92 92 WSW 3 6 29.73 1007 10 16 N/A
8:53 am 08:53 Sunny 30 -1.1 25 -3.9 82 82 WSW 5 7 29.74 1007 10 16 N/A
9:53 am 09:53 Sunny 37 2.8 28 -2.2 70 70 SW 12 19 29.73 1007 10 16 N/A
10:53 am 10:53 undefined 39 3.9 29 -1.7 67 67 undefined N/A 29.72 1007 N/A N/A
11:53 am 11:53 undefined 39 4 N/A N/A undefined N/A 29.71 1006 N/A N/A
12:53 pm 12:53 Partly Cloudy 44 6.7 27 -2.8 51 51 WSW 13 20 29.69 1005 N/A N/A
1:53 pm 13:53 Mostly Cloudy 44 6.7 28 -2.2 53 53 undefined N/A 29.68 1005 N/A N/A
2:53 pm 14:53 Mostly Cloudy 46 7.8 29 -1.7 51 51 SSW 9 15 29.67 1005 10 16 N/A
3:53 pm 15:53 Mostly Sunny 43 6.1 28 -2.2 56 56 WSW 5 7 29.69 1005 10 16 N/A
4:53 pm 16:53 Clear 38 3.3 27 -2.8 65 65 WSW 3 6 29.70 1006 10 16 N/A
5:53 pm 17:53 Clear 30 -1.1 23 -5 75 75 SSE 7 11 29.71 1006 10 16 N/A
6:53 pm 18:53 Clear 33 0.6 24 -4.4 70 70 N N/A 29.71 1006 10 16 N/A
7:53 pm 19:53 Clear 29 -1.7 23 -5 78 78 N N/A 29.72 1006 10 16 N/A
8:53 pm 20:53 Clear 25 -3.9 21 -6.1 85 85 SW 6 9 29.71 1006 10 16 N/A
9:53 pm 21:53 Clear 21 -6.1 19 -7.2 92 92 SSW 6 9 29.71 1006 10 16 N/A
10:53 pm 22:53 Clear 22 -5.6 20 -6.7 92 92 W 6 9 29.71 1006 10 16 N/A
11:53 pm 23:53 Clear 21 -6.1 19 -7.2 92 92 N N/A 29.71 1006 10 16 N/A

Powered by AerisWeather